Location: Kellogg
(38.0159°N, 90.0546°W)
Time: 16:08:38
(UTC+00:00)

Vanguard 1 Rocket - Pass Details

Date: 15 September 2024
Orbit: 650 x 4218 km, 34.3° (Epoch: 07 October)

Event Time Altitude Azimuth Distance (km) Brightness Sun altitude
Rises 10:08:00 0° 247° (WSW) 5,483 - -19.0°
Reaches altitude 10° 10:10:54 10° 245° (WSW) 4,839 - -18.5°
Exits shadow 10:13:47 22° 242° (WSW) 4,281 10.2 -17.9°
Maximum altitude 10:26:21 74° 163° (SSE) 3,514 10.3 -15.6°
Drops below altitude 10° 10:52:00 10° 85° (E) 7,425 13.6 -10.7°
Sets 10:57:50 0° 85° (E) 8,401 14.6 -9.5°
